[[{"header":{"parameterUnit":"m.s-1","parameterCategory":1,"la1":30.2991,"la2":30.254,"lo1":-89.0895,"lo2":-89.0444,"dy":0.0017,"dx":0.0017,"nx":28,"ny":28,"refTime":"2025-01-20T03:00:00:Z","depth":0,"parameterNumber":2,"parameterNumberName":"U-component_of_WINDS"},"data":[0,0,0,0,0,0,0,0,0,0,0,0,0,0,0,0,0,0,0,0,0,0,0,0,0,0,0,0,0,0,0,0,0,0,0,0,0,0,0,0,0,0,0,0,0,0,0,0,0,0,0,0,0,0,0,0,0,0,-0.7851,-0.7852,0,-0.7925,-0.7926,-0.7927,-0.7894,-0.7892,-0.789,-0.7888,-0.7968,-0.7972,-0.7976,0,0,0,0,0,0,0,0,0,0,0,0,0,-0.7684,-0.7687,-0.7851,-0.7852,-0.7853,-0.7925,-0.7926,-0.7927,-0.7894,-0.7892,-0.7889,-0.7887,-0.7967,-0.7971,-0.7976,0,0,0,0,0,0,0,0,0,0,0,0,0,-0.7757,-0.7688,-0.7851,-0.7845,-0.7845,-0.7925,-0.7926,-0.7927,-0.7894,-0.7892,-0.7889,-0.7886,-0.7965,-0.7971,-0.7977,-0.8068,0,0,-0.7994,-0.7997,0,0,0,0,0,0,0,0,-0.7753,-0.7763,-0.7845,-0.7845,-0.7846,-0.7897,-0.7896,-0.7975,-0.7895,-0.7876,-0.7888,-0.7885,-0.7947,-0.7954,-0.7974,-0.8072,-0.8075,-0.7995,-0.7998,-0.8001,-0.8003,0,0,0,0,0,0,0,-0.7748,-0.776,-0.7881,-0.7846,-0.7847,-0.7839,-0.7847,-0.7911,-0.7926,-0.7877,-0.7875,-0.7884,-0.7947,-0.7969,-0.7976,-0.8076,-0.7995,-0.8,-0.8003,-0.8006,-0.8252,-0.8255,0,0,0,0,0,0,-0.7742,-0.7756,-0.7878,-0.7883,-0.7791,-0.7845,-0.7853,-0.7884,-0.7925,-0.7929,-0.7886,-0.7882,-0.796,-0.7969,-0.7979,-0.8089,-0.8001,-0.8006,-0.801,-0.8249,-0.8253,-0.8256,0,0,0,0,0,0,-0.7739,-0.7754,-0.7875,-0.7819,-0.7834,-0.7851,-0.7885,-0.7887,-0.7908,-0.7932,-0.7935,-0.7906,-0.7959,-0.7971,-0.8046,-0.8091,-0.8009,-0.8014,-0.8245,-0.825,-0.8254,-0.8309,0,0,0,0,0,0,-0.7734,-0.7753,-0.7787,-0.782,-0.7837,-0.794,-0.7888,-0.789,-0.7918,-0.7913,-0.7951,-0.7955,-0.7957,-0.8037,-0.8051,-0.8098,-0.8019,-0.8242,-0.8248,-0.8253,-0.8304,-0.8315,-0.8325,0,0,0,0,0,-0.7728,-0.78,-0.7789,-0.7804,-0.788,-0.7943,-0.7953,-0.7953,-0.7922,-0.7957,-0.7972,-0.7954,-0.8083,-0.8045,-0.8061,-0.811,-0.8239,-0.8246,-0.8253,-0.8299,-0.8313,-0.8325,0,0,0,0,0,0,-0.7775,-0.7805,-0.7792,-0.7877,-0.7907,-0.7937,-0.7982,-0.7968,-0.8009,-0.8003,-0.8003,-0.8011,-0.8089,-0.8107,-0.8064,-0.82,-0.8156,-0.8167,-0.8186,-0.82,-0.821,-0.8206,-0.8023,0,0,0,0,0,-0.7794,-0.7842,-0.7866,-0.7938,-0.7954,-0.7965,-0.7993,-0.799,-0.8022,-0.8035,-0.8056,-0.8089,-0.8137,-0.8169,-0.8215,-0.8305,-0.8313,-0.8346,-0.8357,-0.8365,-0.8375,-0.8425,-0.844,-0.8279,-0.8279,-0.8279,0,0,-0.7836,-0.7858,-0.7889,-0.7948,-0.7971,-0.8022,-0.7977,-0.8032,-0.807,-0.8044,-0.8117,-0.8132,-0.8169,-0.8253,-0.829,-0.8269,-0.8421,-0.8374,-0.8381,-0.8386,-0.8434,-0.8449,-0.8462,-0.8284,-0.8283,-0.8282,0,0,-0.7938,-0.7959,-0.8022,-0.8046,-0.8081,-0.8088,-0.8103,-0.8134,-0.8144,-0.8215,-0.8197,-0.8242,-0.8325,-0.8352,-0.8377,-0.8487,-0.8472,-0.8502,-0.8559,-0.8608,-0.862,-0.8632,-0.8672,-0.8687,-0.8511,-0.8511,-0.8511,0,-0.7987,-0.8061,-0.8056,-0.8113,-0.814,-0.8117,-0.8181,-0.8204,-0.8254,-0.8273,-0.8248,-0.8351,-0.8374,-0.8463,-0.849,-0.851,-0.8528,-0.8499,-0.8618,-0.863,-0.864,-0.8679,-0.8694,-0.8514,-0.8514,-0.8514,-0.8513,0,-0.8119,-0.8171,-0.8217,-0.8263,-0.8295,-0.8355,-0.8361,-0.8393,-0.8387,-0.8396,-0.847,-0.8496,-0.8547,-0.8567,-0.8562,-0.8656,-0.8642,-0.8618,-0.8575,-0.8659,-0.8696,-0.8711,-0.8519,-0.8518,-0.8517,-0.8516,0,0,-0.8255,-0.8296,-0.8314,-0.8334,-0.8371,-0.8411,-0.847,-0.8518,-0.8546,-0.858,-0.8631,-0.87,-0.8677,-0.8705,-0.8702,-0.8745,-0.8831,-0.8715,-0.8716,-0.8737,-0.8938,-0.8957,-0.8974,-0.882,-0.8823,-0.8825,-0.8935,0,-0.8362,-0.8464,-0.8461,-0.8556,-0.8605,-0.8582,-0.8633,-0.8662,-0.8671,-0.8714,-0.8725,-0.8775,-0.8741,-0.8758,-0.8798,-0.8812,-0.8872,-0.8804,-0.8869,-0.8871,-0.8863,-0.8993,-0.9014,-0.9116,-0.8949,-0.8951,-0.8953,0,-0.85,-0.8537,-0.8637,-0.8665,-0.8686,-0.8732,-0.8775,-0.8816,-0.8847,-0.8851,-0.8881,-0.8872,-0.8932,-0.8885,-0.8969,-0.8923,-0.8948,-0.8959,-0.8963,-0.8971,-0.8919,-0.9007,-0.9149,-0.9165,-0.8975,-0.8974,-0.8972,0,-0.8591,-0.8666,-0.8736,-0.8754,-0.8788,-0.8821,-0.8837,-0.8866,-0.8894,-0.8932,-0.8951,-0.8995,-0.9021,-0.9056,-0.9058,-0.9024,-0.9143,-0.9096,-0.915,-0.915,-0.9179,-0.9177,-0.9329,-0.9192,-0.9191,-0.9191,-0.9191,0,-0.8712,-0.8774,-0.8777,-0.882,-0.889,-0.8885,-0.8954,-0.8967,-0.8992,-0.9038,-0.9021,-0.9064,-0.9064,-0.9109,-0.9111,-0.9181,-0.9192,-0.9198,-0.9198,-0.9201,-0.92,-0.922,-0.9214,-0.9195,-0.9194,-0.9193,-0.9193,0,-0.8827,-0.8831,-0.8905,-0.8931,-0.8939,-0.8989,-0.9012,-0.9053,-0.906,-0.9118,-0.9131,-0.9143,-0.9195,-0.92,-0.926,-0.9262,-0.9346,-0.9338,-0.9336,-0.9335,-0.9389,-0.9384,-0.956,-0.9584,-0.9429,-0.9431,-0.9432,0,-0.8905,-0.8952,-0.8982,-0.9011,-0.9028,-0.9075,-0.9104,-0.91,-0.9131,-0.9169,-0.9206,-0.9255,-0.9295,-0.9378,-0.9393,-0.9439,-0.9433,-0.9491,-0.944,-0.9441,-0.9436,-0.9434,-0.9439,-0.9502,-0.9504,-0.9505,-0.9506,0,-0.9043,-0.9042,-0.9083,-0.9125,-0.9159,-0.9192,-0.9223,-0.9248,-0.9249,-0.9284,-0.9335,-0.9366,-0.9426,-0.9476,-0.952,-0.9538,-0.9523,-0.9522,-0.9537,-0.9541,-0.9539,-0.9542,-0.9365,-0.9518,-0.9517,-0.9516,-0.9516,-0.9515,-0.9143,-0.9184,-0.9211,-0.9258,-0.928,-0.9309,-0.9349,-0.936,-0.9403,-0.9451,-0.9446,-0.9503,-0.9533,-0.9591,-0.9611,-0.9657,-0.9637,-0.9659,-0.9665,-0.9671,-0.9677,-0.9529,-0.9664,-0.9664,-0.9664,-0.9664,-0.9663,0,-0.9282,-0.9297,-0.934,-0.9383,-0.9419,-0.9399,-0.9432,-0.9465,-0.9515,-0.9543,-0.9581,-0.964,-0.9688,-0.9705,-0.9752,-0.9785,-0.9779,-0.9797,-0.9796,-0.98,-0.9691,-0.9674,-0.9801,-0.9801,-0.9801,-0.9801,-0.9801,-0.9801,-0.9358,-0.9427,-0.9429,-0.9508,-0.9524,-0.9579,-0.9599,-0.9626,-0.9648,-0.9715,-0.9754,-0.9764,-0.9788,-0.9835,-0.9878,-0.9882,-0.9901,-0.9923,-0.9924,-0.9822,-0.9808,-0.9795,-0.9779,-0.9926,-0.9926,-1.003,-1.0031,-1.0031]},{"header":{"parameterUnit":"m.s-1","parameterCategory":1,"la1":30.2991,"la2":30.254,"lo1":-89.0895,"lo2":-89.0444,"dy":0.0017,"dx":0.0017,"nx":28,"ny":28,"refTime":"2025-01-20T03:00:00:Z","depth":0,"parameterNumber":3,"parameterNumberName":"V-component_of_WINDS"},"data":[0,0,0,0,0,0,0,0,0,0,0,0,0,0,0,0,0,0,0,0,0,0,0,0,0,0,0,0,0,0,0,0,0,0,0,0,0,0,0,0,0,0,0,0,0,0,0,0,0,0,0,0,0,0,0,0,0,0,-7.6246,-7.6247,0,-7.6382,-7.6383,-7.6385,-7.6279,-7.6274,-7.627,-7.6265,-7.6399,-7.6407,-7.6415,0,0,0,0,0,0,0,0,0,0,0,0,0,-7.589,-7.5897,-7.6246,-7.6248,-7.6249,-7.6381,-7.6383,-7.6385,-7.6279,-7.6274,-7.6268,-7.6263,-7.6397,-7.6406,-7.6415,0,0,0,0,0,0,0,0,0,0,0,0,0,-7.6037,-7.59,-7.6246,-7.6213,-7.6211,-7.6381,-7.6383,-7.6386,-7.6281,-7.6274,-7.6267,-7.6261,-7.6394,-7.6405,-7.6417,-7.6625,0,0,-7.6452,-7.6458,0,0,0,0,0,0,0,0,-7.6029,-7.605,-7.6216,-7.6215,-7.6214,-7.6306,-7.6307,-7.6466,-7.6282,-7.6254,-7.6265,-7.6257,-7.6374,-7.6387,-7.6427,-7.6631,-7.6637,-7.6454,-7.6461,-7.6466,-7.6469,0,0,0,0,0,0,0,-7.6019,-7.6044,-7.6299,-7.6218,-7.6217,-7.6189,-7.6203,-7.6336,-7.635,-7.6256,-7.6249,-7.6266,-7.6372,-7.6416,-7.6429,-7.6639,-7.6453,-7.6464,-7.6471,-7.6475,-7.702,-7.7027,0,0,0,0,0,0,-7.6012,-7.6036,-7.6295,-7.6303,-7.6103,-7.6201,-7.6216,-7.6283,-7.6348,-7.6352,-7.6272,-7.6261,-7.6399,-7.6416,-7.6433,-7.6681,-7.6466,-7.6477,-7.6483,-7.7013,-7.7022,-7.703,0,0,0,0,0,0,-7.6005,-7.6037,-7.629,-7.6168,-7.6198,-7.6215,-7.6291,-7.629,-7.6334,-7.6361,-7.6362,-7.6315,-7.6394,-7.6417,-7.6578,-7.6684,-7.6482,-7.6492,-7.7004,-7.7015,-7.7026,-7.7179,0,0,0,0,0,0,-7.5996,-7.6035,-7.6115,-7.6171,-7.6205,-7.6435,-7.6298,-7.6297,-7.6355,-7.6341,-7.6401,-7.6405,-7.6391,-7.6562,-7.659,-7.6697,-7.6502,-7.6994,-7.7009,-7.7022,-7.7165,-7.7194,-7.7219,0,0,0,0,0,-7.5983,-7.6152,-7.612,-7.6152,-7.6306,-7.6441,-7.646,-7.6442,-7.6364,-7.6444,-7.6461,-7.6403,-7.6668,-7.6579,-7.661,-7.6722,-7.6988,-7.7005,-7.7021,-7.7152,-7.7188,-7.7219,0,0,0,0,0,0,-7.6108,-7.6159,-7.6124,-7.6316,-7.6375,-7.6423,-7.6524,-7.6481,-7.6562,-7.6546,-7.6519,-7.6533,-7.6703,-7.6728,-7.6628,-7.6927,-7.6815,-7.6839,-7.6904,-7.6939,-7.6965,-7.6956,-7.6511,0,0,0,0,0,-7.6158,-7.6264,-7.6302,-7.6468,-7.65,-7.6507,-7.6565,-7.6546,-7.6605,-7.6629,-7.6658,-7.6717,-7.6813,-7.6877,-7.6967,-7.7167,-7.7178,-7.726,-7.7287,-7.7309,-7.733,-7.7437,-7.7474,-7.7085,-7.7085,-7.7084,0,0,-7.6262,-7.6303,-7.6372,-7.6495,-7.6538,-7.6647,-7.6529,-7.6649,-7.673,-7.6647,-7.6802,-7.6825,-7.6888,-7.707,-7.7151,-7.7096,-7.744,-7.7331,-7.7348,-7.7357,-7.7458,-7.7495,-7.7528,-7.7096,-7.7094,-7.7092,0,0,-7.6508,-7.655,-7.6693,-7.6739,-7.6807,-7.681,-7.6845,-7.6899,-7.6912,-7.7067,-7.7007,-7.7101,-7.7268,-7.7315,-7.7361,-7.7624,-7.7573,-7.7654,-7.7797,-7.7902,-7.7933,-7.796,-7.8053,-7.8087,-7.7675,-7.7675,-7.7676,0,-7.6628,-7.6792,-7.6771,-7.6897,-7.6952,-7.6883,-7.7027,-7.7072,-7.7166,-7.7204,-7.7142,-7.7349,-7.7387,-7.7579,-7.7643,-7.7683,-7.772,-7.7647,-7.793,-7.7957,-7.7982,-7.8071,-7.8106,-7.7685,-7.7684,-7.7683,-7.7682,0,-7.6937,-7.7051,-7.7158,-7.7252,-7.7319,-7.7453,-7.745,-7.752,-7.7496,-7.7505,-7.7663,-7.7706,-7.7803,-7.7847,-7.7823,-7.8036,-7.7999,-7.7934,-7.7821,-7.8029,-7.8112,-7.8146,-7.7698,-7.7695,-7.7692,-7.769,0,0,-7.7265,-7.7346,-7.7385,-7.7427,-7.7496,-7.7584,-7.7713,-7.781,-7.7871,-7.7937,-7.8044,-7.8187,-7.8127,-7.8179,-7.816,-7.8252,-7.8457,-7.8175,-7.8176,-7.8226,-7.8693,-7.8741,-7.8781,-7.8424,-7.843,-7.8435,-7.8687,0,-7.7514,-7.7743,-7.7727,-7.7942,-7.8047,-7.7983,-7.8095,-7.815,-7.8162,-7.8251,-7.8263,-7.8365,-7.8278,-7.8309,-7.8397,-7.8414,-7.855,-7.8395,-7.8522,-7.8527,-7.8509,-7.8825,-7.8877,-7.9113,-7.8719,-7.8725,-7.8729,0,-7.7836,-7.7915,-7.8141,-7.8194,-7.8237,-7.834,-7.8427,-7.8513,-7.8572,-7.8574,-7.8633,-7.8599,-7.8728,-7.8612,-7.8789,-7.8684,-7.8734,-7.875,-7.8758,-7.877,-7.8641,-7.8844,-7.9188,-7.9223,-7.878,-7.8776,-7.8772,0,-7.8053,-7.8215,-7.8371,-7.8409,-7.8475,-7.8548,-7.8579,-7.8631,-7.869,-7.8766,-7.8803,-7.8892,-7.8941,-7.901,-7.8999,-7.8916,-7.9179,-7.9063,-7.9184,-7.9184,-7.9242,-7.9239,-7.9599,-7.9275,-7.9275,-7.9274,-7.9273,0,-7.8333,-7.8473,-7.847,-7.8566,-7.8721,-7.87,-7.8853,-7.8875,-7.8923,-7.902,-7.8969,-7.9062,-7.9042,-7.9134,-7.9126,-7.9273,-7.9295,-7.9299,-7.9296,-7.9305,-7.9304,-7.9337,-7.9321,-7.9283,-7.9281,-7.9279,-7.9278,0,-7.8601,-7.8605,-7.8771,-7.882,-7.8836,-7.8948,-7.8989,-7.9079,-7.9086,-7.921,-7.9238,-7.925,-7.9355,-7.9351,-7.947,-7.9464,-7.9646,-7.9623,-7.9627,-7.9622,-7.9743,-7.9732,-8.0137,-8.0189,-7.9832,-7.9835,-7.9838,0,-7.878,-7.8887,-7.8948,-7.9011,-7.9047,-7.9148,-7.9208,-7.9191,-7.9256,-7.9331,-7.9412,-7.9512,-7.9592,-7.9762,-7.978,-7.987,-7.9849,-7.9985,-7.9862,-7.9867,-7.9851,-7.9845,-7.9855,-8.0009,-8.0013,-8.0016,-8.0019,0,-7.9096,-7.9093,-7.9183,-7.9274,-7.9348,-7.9418,-7.9482,-7.9536,-7.9526,-7.9601,-7.9708,-7.977,-7.9892,-7.9992,-8.0078,-8.0107,-8.0062,-8.0057,-8.009,-8.01,-8.0098,-8.01,-7.9692,-8.0048,-8.0045,-8.0043,-8.0042,-8.004,-7.9325,-7.9417,-7.9475,-7.9576,-7.9623,-7.9685,-7.9772,-7.9791,-7.9881,-7.998,-7.9963,-8.0084,-8.0138,-8.025,-8.0287,-8.038,-8.0331,-8.0379,-8.0391,-8.0403,-8.0416,-8.0083,-8.0395,-8.0394,-8.0393,-8.0393,-8.0392,0,-7.9639,-7.9673,-7.9767,-7.9859,-7.9939,-7.989,-7.9959,-8.0028,-8.0135,-8.0191,-8.0271,-8.0394,-8.049,-8.0516,-8.0609,-8.0678,-8.0659,-8.0702,-8.0697,-8.0705,-8.0454,-8.0417,-8.0716,-8.0716,-8.0716,-8.0716,-8.0716,-8.0716,-7.9812,-7.9965,-7.9968,-8.0143,-8.0174,-8.0294,-8.0337,-8.0392,-8.0437,-8.0577,-8.0658,-8.0675,-8.0718,-8.0813,-8.0899,-8.0904,-8.094,-8.0992,-8.0989,-8.0755,-8.0722,-8.0691,-8.0656,-8.1,-8.1001,-8.1231,-8.1233,-8.1235]}]]